DW4844 Weather Reports


time (UTC)temp
C
wind
direction
speed
KPH
gust
KPH
rain 1hr
cm
rain 24hr
cm
rain mn
cm
humidity
%
barometer
mb
20260508010237 6 0.0 0.0 0.00 0.00 0.00 77 1018.1
20260508005237 6 0.0 0.0 0.00 0.00 0.00 75 1017.9
20260508004217 6 0.0 0.0 0.00 0.00 0.00 75 1017.9
20260508003217 6 0.0 0.0 0.00 0.00 0.00 74 1017.9
20260508002217 6 0.0 0.0 0.00 0.00 0.00 73 1017.9
20260508001217 6 0.0 0.0 0.00 0.00 0.00 73 1018.0
20260508000219 6 0.0 0.0 0.00 0.00 0.00 74 1018.1
20260507235217 6 0.0 0.0 0.00 0.00 0.00 75 1018.0
20260507234217 5 0.0 0.0 0.00 0.00 0.00 77 1018.0
20260507233217 5 0.0 0.0 0.00 0.00 0.00 79 1018.0
20260507232237 5 0.0 0.0 0.00 0.00 0.00 79 1018.1
20260507231217 5 0.0 0.0 0.00 0.00 0.00 80 1018.1
20260507230217 5 0.0 0.0 0.00 0.00 0.00 80 1018.1
20260507225217 5 0.0 0.0 0.00 0.00 0.00 80 1018.1
20260507224257 5 0.0 0.0 0.00 0.00 0.00 80 1018.1
20260507223217 5 0.0 0.0 0.00 0.00 0.00 80 1018.0
20260507222217 5 0.0 0.0 0.00 0.00 0.00 80 1018.0
20260507221217 5 0.0 0.0 0.00 0.00 0.00 81 1017.9
20260507220237 5 0.0 0.0 0.00 0.00 0.00 80 1018.0
20260507215237 5 0.0 0.0 0.00 0.00 0.00 79 1018.0
20260507214217 5 0.0 0.0 0.00 0.00 0.00 78 1018.0
20260507213217 6 0.0 0.0 0.00 0.00 0.00 78 1017.9
20260507212217 6 0.0 0.0 0.00 0.00 0.00 77 1017.9
20260507211257 5 0.0 0.0 0.00 0.00 0.00 78 1017.8
20260507210217 4 0.0 0.0 0.00 0.00 0.00 76 1017.9
20260507205217 4 0.0 0.0 0.00 0.00 0.00 75 1017.9
20260507204217 5 0.0 0.0 0.00 0.00 0.00 74 1017.8
20260507203217 5 0.0 0.0 0.00 0.00 0.00 72 1017.9
20260507202217 5 0.0 0.0 0.00 0.00 0.00 70 1017.9
20260507201217 6 0.0 0.0 0.00 0.00 0.00 69 1017.8
20260507200217 6 0.0 0.0 0.00 0.00 0.00 67 1017.7
20260507195217 6 0.0 0.0 0.00 0.00 0.00 66 1017.6
20260507194217 7 0.0 0.0 0.00 0.00 0.00 65 1017.4
20260507193217 7 0.0 0.0 0.00 0.00 0.00 64 1017.5
20260507192217 8 0.0 0.0 0.00 0.00 0.00 62 1017.3
20260507191217 8 0.0 0.0 0.00 0.00 0.00 60 1017.3
20260507190257 8 0.0 0.0 0.00 0.00 0.00 57 1017.3
20260507185217 10 0.0 0.0 0.00 0.00 0.00 54 1017.1
20260507184217 10 0.0 0.0 0.00 0.00 0.00 53 1017.0
20260507183217 10 0.0 0.0 0.00 0.00 0.00 51 1017.0
20260507182217 10 0.0 0.0 0.00 0.00 0.00 49 1017.0
20260507181217 11 0.0 0.0 0.00 0.00 0.00 48 1016.9
20260507180217 11 0.0 0.0 0.00 0.00 0.00 50 1017.0
20260507175217 11 0.0 0.0 0.00 0.00 0.00 49 1016.9
20260507174217 11 0.0 0.0 0.00 0.00 0.00 49 1016.9
20260507173217 11 0.0 0.0 0.00 0.00 0.00 49 1016.8
20260507172217 11 0.0 0.0 0.00 0.00 0.00 49 1016.8
20260507171237 11 0.0 0.0 0.00 0.00 0.00 47 1016.7
20260507170217 11 0.0 0.0 0.00 0.00 0.00 47 1016.8
20260507165217 12 0.0 0.0 0.00 0.00 0.00 46 1016.7
20260507164217 12 0.0 0.0 0.00 0.00 0.00 46 1016.7
20260507163215 12 0.0 0.0 0.00 0.00 0.00 45 1016.7
20260507162237 12 0.0 0.0 0.00 0.00 0.00 43 1016.7
20260507161217 12 0.0 0.0 0.00 0.00 0.00 44 1016.7
20260507160257 12 0.0 0.0 0.00 0.00 0.00 44 1016.8
20260507155217 12 0.0 0.0 0.00 0.00 0.00 42 1016.9
20260507154217 12 0.0 0.0 0.00 0.00 0.00 44 1016.9
20260507153217 12 0.0 0.0 0.00 0.00 0.00 44 1017.0
20260507152217 13 0.0 0.0 0.00 0.00 0.00 41 1016.9
20260507151237 13 0.0 0.0 0.00 0.00 0.00 43 1017.0
20260507150217 13 0.0 0.0 0.00 0.00 0.00 41 1016.9
20260507145237 12 0.0 0.0 0.00 0.00 0.00 43 1017.0
20260507144217 12 0.0 0.0 0.00 0.00 0.00 44 1016.9
20260507143217 12 0.0 0.0 0.00 0.00 0.00 43 1016.8
20260507142217 12 0.0 0.0 0.00 0.00 0.00 46 1017.0
20260507141217 12 0.0 0.0 0.00 0.00 0.00 46 1017.1
20260507140217 13 0.0 0.0 0.00 0.00 0.00 44 1016.9
20260507135217 13 0.0 0.0 0.00 0.00 0.00 44 1016.9
20260507134217 13 0.0 0.0 0.00 0.00 0.00 45 1017.0
20260507133217 13 0.0 0.0 0.00 0.00 0.00 42 1016.9
20260507132217 14 0.0 0.0 0.00 0.00 0.00 37 1016.9
20260507131217 13 0.0 0.0 0.00 0.00 0.00 31 1016.8
20260507130237 13 0.0 0.0 0.00 0.00 0.00 28 1016.8
20260507125257 14 0.0 0.0 0.00 0.00 0.00 31 1016.7
20260507124217 14 0.0 0.0 0.00 0.00 0.00 28 1016.7
20260507123237 13 0.0 0.0 0.00 0.00 0.00 28 1016.6
20260507122217 13 0.0 0.0 0.00 0.00 0.00 29 1016.7
20260507121217 13 0.0 0.0 0.00 0.00 0.00 30 1016.8
20260507120257 13 0.0 0.0 0.00 0.00 0.00 31 1016.6
20260507115217 13 0.0 0.0 0.00 0.00 0.00 30 1016.6
20260507114217 13 0.0 0.0 0.00 0.00 0.00 34 1016.7
20260507113217 13 0.0 0.0 0.00 0.00 0.00 35 1016.7
20260507112237 12 0.0 0.0 0.00 0.00 0.00 39 1016.6
20260507111217 12 0.0 0.0 0.00 0.00 0.00 40 1016.7
20260507110217 12 0.0 0.0 0.00 0.00 0.00 42 1016.7
20260507105217 12 0.0 0.0 0.00 0.00 0.00 42 1016.6
20260507104217 12 0.0 0.0 0.00 0.00 0.00 43 1016.6
20260507103217 12 0.0 0.0 0.00 0.00 0.00 41 1016.7
20260507102217 12 0.0 0.0 0.00 0.00 0.00 42 1016.6
20260507101217 11 0.0 0.0 0.00 0.00 0.00 43 1016.6
20260507100217 11 0.0 0.0 0.00 0.00 0.00 43 1016.5
20260507095217 12 0.0 0.0 0.00 0.00 0.00 44 1016.6
20260507094217 11 0.0 0.0 0.00 0.00 0.00 43 1016.6
20260507093237 11 0.0 0.0 0.00 0.00 0.00 43 1016.6
20260507092217 10 0.0 0.0 0.00 0.00 0.00 40 1016.6
20260507091237 10 0.0 0.0 0.00 0.00 0.00 45 1016.6
20260507090257 10 0.0 0.0 0.00 0.00 0.00 48 1016.5
20260507085217 9 0.0 0.0 0.00 0.00 0.00 51 1016.5
20260507084217 9 0.0 0.0 0.00 0.00 0.00 52 1016.5
20260507083217 8 0.0 0.0 0.00 0.00 0.00 52 1016.5
20260507082217 8 0.0 0.0 0.00 0.00 0.00 53 1016.4
20260507081217 8 0.0 0.0 0.00 0.00 0.00 54 1016.4
20260507080217 8 0.0 0.0 0.00 0.00 0.00 55 1016.4
20260507075237 8 0.0 0.0 0.00 0.00 0.00 56 1016.4
20260507074217 7 0.0 0.0 0.00 0.00 0.00 58 1016.4
20260507073237 7 0.0 0.0 0.00 0.00 0.00 59 1016.3
20260507072217 7 0.0 0.0 0.00 0.00 0.00 61 1016.3
20260507071217 7 0.0 0.0 0.00 0.00 0.00 63 1016.4
20260507070217 6 0.0 0.0 0.00 0.00 0.00 66 1016.4
20260507065217 6 0.0 0.0 0.00 0.00 0.00 68 1016.4
20260507064217 6 0.0 0.0 0.00 0.00 0.00 71 1016.4
20260507063217 6 0.0 0.0 0.00 0.00 0.00 74 1016.3
20260507062217 5 0.0 0.0 0.00 0.00 0.00 80 1016.2
20260507061217 4 0.0 0.0 0.00 0.00 0.00 81 1016.1
20260507060217 3 0.0 0.0 0.00 0.00 0.00 84 1016.2
20260507055217 3 0.0 0.0 0.00 0.00 0.00 84 1016.2
20260507054217 3 0.0 0.0 0.00 0.00 0.00 85 1016.2
20260507053217 2 0.0 0.0 0.00 0.00 0.00 87 1016.2
20260507052217 2 0.0 0.0 0.00 0.00 0.00 88 1016.1
20260507051217 2 0.0 0.0 0.00 0.00 0.00 88 1016.0
20260507050257 1 0.0 0.0 0.00 0.00 0.00 89 1016.0
20260507045217 1 0.0 0.0 0.00 0.00 0.00 90 1016.0
20260507044217 1 0.0 0.0 0.00 0.00 0.00 90 1015.9
20260507043217 0 0.0 0.0 0.00 0.00 0.00 90 1015.9
20260507042217 0 0.0 0.0 0.00 0.00 0.00 91 1015.8
20260507041217 0 0.0 0.0 0.00 0.00 0.00 90 1015.8
20260507040237 0 0.0 0.0 0.00 0.00 0.00 90 1015.8
20260507035217 0 0.0 0.0 0.00 0.00 0.00 89 1015.7
20260507034217 0 0.0 0.0 0.00 0.00 0.00 89 1015.7
20260507033217 0 0.0 0.0 0.00 0.00 0.00 90 1015.6
20260507032217 0 0.0 0.0 0.00 0.00 0.00 89 1015.7
20260507031237 0 0.0 0.0 0.00 0.00 0.00 89 1015.7
20260507030217 0 0.0 0.0 0.00 0.00 0.00 88 1015.7
20260507025217 0 0.0 0.0 0.00 0.00 0.00 87 1015.7
20260507024217 0 0.0 0.0 0.00 0.00 0.00 87 1015.6
20260507023217 0 0.0 0.0 0.00 0.00 0.00 87 1015.5
20260507022237 1 0.0 0.0 0.00 0.00 0.00 87 1015.5
20260507021237 1 0.0 0.0 0.00 0.00 0.00 86 1015.4
20260507020217 1 0.0 0.0 0.00 0.00 0.00 86 1015.4
20260507015217 1 0.0 0.0 0.00 0.00 0.00 86 1015.4
20260507014217 1 0.0 0.0 0.00 0.00 0.00 85 1015.3
20260507013217 2 0.0 0.0 0.00 0.00 0.00 84 1015.3
20260507012217 2 0.0 0.0 0.00 0.00 0.00 83 1015.1
20260507011317 3 0.0 0.0 0.00 0.00 0.00 85 1015.1